Total_Precipitation_Accumulation
0.01 0.03 0.04 0.05 0.06 0.07 0.05 0.06 0.10 0.08 0.08 0.04 0.01 0.01 0.01 0.00 0.00 0.00 0.00 0.01 0.01 0.01 0.01 0.01 0.01 0.01 0.01 0.01 0.02 0.02 0.04 0.09 0.09 0.07 0.06 0.06 0.08 0.10 0.12 0.13 0.13 0.18 0.23 0.27
0.00 0.03 0.03 0.05 0.08 0.06 0.03 0.02 0.03 0.03 0.03 0.01 0.02 0.02 0.02 0.02 0.02 0.02 0.02 0.02 0.02 0.02 0.02 0.01 0.01 0.02 0.01 0.02 0.02 0.04 0.08 0.14 0.17 0.14 0.08 0.06 0.06 0.08 0.10 0.11 0.13 0.18 0.22 0.25
0.01 0.03 0.03 0.12 0.10 0.04 0.02 0.02 0.03 0.04 0.05 0.04 0.05 0.05 0.07 0.07 0.06 0.05 0.04 0.03 0.02 0.01 0.01 0.01 0.01 0.01 0.02 0.02 0.03 0.10 0.13 0.11 0.18 0.20 0.10 0.06 0.07 0.09 0.12 0.14 0.17 0.22 0.25 0.26
0.01 0.02 0.09 0.10 0.04 0.02 0.02 0.03 0.04 0.05 0.06 0.08 0.09 0.09 0.09 0.10 0.08 0.04 0.02 0.01 0.00 0.00 0.00 0.00 0.00 0.01 0.02 0.05 0.05 0.13 0.16 0.13 0.19 0.21 0.13 0.13 0.15 0.17 0.19 0.23 0.27 0.31 0.31 0.32
0.01 0.02 0.06 0.05 0.04 0.04 0.05 0.05 0.06 0.08 0.11 0.11 0.09 0.06 0.04 0.03 0.02 0.01 0.00 0.00 0.00 0.00 0.00 0.00 0.01 0.01 0.03 0.08 0.11 0.12 0.15 0.14 0.21 0.28 0.24 0.24 0.26 0.29 0.33 0.37 0.39 0.39 0.40 0.41
0.02 0.05 0.08 0.07 0.06 0.07 0.08 0.14 0.12 0.09 0.07 0.04 0.02 0.03 0.01 0.00 0.00 0.00 0.00 0.00 0.00 0.00 0.00 0.01 0.02 0.04 0.05 0.08 0.13 0.15 0.16 0.18 0.24 0.37 0.42 0.40 0.39 0.42 0.44 0.52 0.54 0.54 0.51 0.49
0.04 0.07 0.08 0.06 0.05 0.06 0.12 0.15 0.05 0.02 0.02 0.02 0.02 0.03 0.01 0.00 0.01 0.01 0.00 0.00 0.01 0.01 0.01 0.03 0.05 0.08 0.12 0.14 0.16 0.18 0.20 0.24 0.30 0.44 0.58 0.56 0.56 0.56 0.58 0.61 0.67 0.73 0.73 0.70
0.05 0.12 0.13 0.04 0.03 0.05 0.06 0.04 0.02 0.02 0.02 0.02 0.02 0.01 0.01 0.01 0.01 0.01 0.01 0.01 0.02 0.03 0.05 0.06 0.10 0.17 0.22 0.23 0.23 0.26 0.28 0.32 0.37 0.51 0.55 0.59 0.67 0.72 0.80 0.83 0.85 0.86 0.89 0.85
0.05 0.08 0.03 0.01 0.01 0.02 0.02 0.02 0.02 0.02 0.02 0.02 0.02 0.02 0.02 0.03 0.02 0.02 0.01 0.02 0.03 0.05 0.08 0.12 0.17 0.27 0.36 0.37 0.38 0.39 0.38 0.39 0.44 0.52 0.65 0.80 0.85 0.82 0.88 0.96 1.01 1.03 1.03 0.98
0.04 0.02 0.01 0.01 0.02 0.02 0.02 0.02 0.02 0.01 0.01 0.01 0.03 0.04 0.05 0.05 0.04 0.03 0.03 0.03 0.04 0.07 0.12 0.17 0.25 0.37 0.47 0.49 0.51 0.50 0.45 0.43 0.48 0.57 0.67 0.81 0.96 0.99 1.04 1.07 1.08 1.13 1.14 1.06
0.03 0.01 0.01 0.01 0.02 0.02 0.01 0.01 0.01 0.01 0.01 0.02 0.04 0.06 0.06 0.06 0.06 0.05 0.04 0.04 0.06 0.11 0.16 0.20 0.30 0.45 0.53 0.57 0.60 0.58 0.52 0.47 0.48 0.55 0.65 0.74 0.87 0.99 1.02 1.04 0.98 1.00 1.05 1.01
0.01 0.01 0.00 0.01 0.01 0.01 0.01 0.01 0.01 0.01 0.01 0.02 0.04 0.05 0.05 0.05 0.05 0.04 0.04 0.07 0.11 0.15 0.21 0.25 0.31 0.42 0.52 0.65 0.77 0.79 0.70 0.60 0.54 0.54 0.62 0.69 0.79 0.83 0.74 0.73 0.71 0.70 0.74 0.70
0.00 0.00 0.00 0.00 0.00 0.00 0.01 0.01 0.01 0.01 0.01 0.02 0.03 0.03 0.02 0.02 0.03 0.05 0.09 0.15 0.20 0.24 0.28 0.34 0.41 0.47 0.55 0.70 0.88 0.99 0.92 0.77 0.65 0.60 0.61 0.65 0.75 0.83 0.85 0.75 0.67 0.61 0.59 0.52
0.01 0.01 0.01 0.01 0.00 0.01 0.00 0.00 0.01 0.01 0.01 0.01 0.02 0.02 0.02 0.03 0.05 0.10 0.18 0.25 0.29 0.33 0.38 0.45 0.51 0.56 0.63 0.75 0.90 0.99 1.00 0.88 0.74 0.70 0.69 0.66 0.70 0.79 0.87 0.94 0.90 0.73 0.58 0.49
0.02 0.01 0.01 0.01 0.01 0.01 0.01 0.01 0.01 0.01 0.02 0.02 0.02 0.03 0.04 0.07 0.12 0.18 0.26 0.35 0.44 0.48 0.47 0.50 0.57 0.61 0.68 0.81 0.90 0.93 0.94 0.87 0.78 0.75 0.75 0.69 0.65 0.72 0.79 0.87 0.95 0.90 0.73 0.58
0.02 0.02 0.02 0.02 0.02 0.02 0.01 0.02 0.02 0.02 0.03 0.03 0.03 0.04 0.06 0.10 0.15 0.22 0.33 0.48 0.67 0.67 0.59 0.58 0.60 0.61 0.70 0.85 0.92 0.85 0.77 0.63 0.61 0.68 0.70 0.67 0.66 0.70 0.78 0.86 0.92 0.89 0.78 0.65
0.02 0.03 0.03 0.02 0.02 0.02 0.02 0.02 0.02 0.03 0.03 0.04 0.05 0.07 0.11 0.17 0.26 0.39 0.49 0.56 0.64 0.64 0.61 0.57 0.52 0.54 0.66 0.81 0.88 0.80 0.67 0.53 0.43 0.49 0.60 0.64 0.68 0.74 0.83 0.90 0.91 0.83 0.69 0.54
0.02 0.02 0.02 0.02 0.01 0.02 0.02 0.02 0.02 0.03 0.04 0.07 0.10 0.13 0.19 0.31 0.50 0.69 0.73 0.71 0.67 0.57 0.51 0.48 0.44 0.47 0.60 0.67 0.77 0.76 0.63 0.53 0.44 0.45 0.52 0.56 0.66 0.78 0.85 0.84 0.78 0.70 0.60 0.49
0.03 0.03 0.03 0.02 0.02 0.02 0.02 0.02 0.03 0.05 0.07 0.13 0.19 0.23 0.28 0.39 0.60 0.80 0.83 0.89 0.87 0.71 0.51 0.42 0.41 0.44 0.54 0.60 0.68 0.71 0.57 0.44 0.36 0.36 0.39 0.42 0.54 0.72 0.76 0.68 0.58 0.53 0.51 0.47
0.03 0.03 0.02 0.02 0.02 0.02 0.02 0.03 0.06 0.09 0.15 0.24 0.30 0.35 0.40 0.46 0.63 0.82 0.89 0.91 0.87 0.70 0.50 0.41 0.40 0.39 0.45 0.57 0.66 0.64 0.51 0.38 0.27 0.24 0.28 0.37 0.50 0.65 0.64 0.52 0.44 0.41 0.41 0.41
0.02 0.02 0.02 0.02 0.01 0.02 0.02 0.05 0.10 0.19 0.28 0.32 0.36 0.43 0.49 0.53 0.62 0.81 1.02 1.03 0.78 0.56 0.43 0.40 0.38 0.37 0.42 0.57 0.61 0.57 0.48 0.39 0.29 0.24 0.27 0.38 0.52 0.59 0.49 0.38 0.33 0.32 0.31 0.33
0.01 0.01 0.01 0.01 0.01 0.02 0.03 0.07 0.14 0.26 0.39 0.40 0.38 0.42 0.51 0.61 0.67 0.73 0.81 0.95 0.84 0.63 0.44 0.37 0.36 0.38 0.44 0.56 0.55 0.48 0.44 0.39 0.33 0.28 0.30 0.39 0.48 0.49 0.40 0.32 0.30 0.28 0.28 0.29
0.00 0.00 0.01 0.01 0.03 0.04 0.05 0.09 0.16 0.31 0.47 0.50 0.47 0.46 0.53 0.63 0.73 0.88 0.85 0.77 0.77 0.69 0.49 0.36 0.32 0.38 0.44 0.50 0.51 0.43 0.42 0.39 0.32 0.28 0.28 0.32 0.36 0.36 0.32 0.26 0.25 0.23 0.24 0.24
0.00 0.01 0.01 0.02 0.04 0.06 0.10 0.15 0.20 0.30 0.42 0.42 0.36 0.33 0.43 0.58 0.61 0.64 0.73 0.77 0.73 0.68 0.52 0.38 0.29 0.32 0.39 0.41 0.43 0.42 0.43 0.36 0.28 0.24 0.24 0.25 0.28 0.29 0.29 0.28 0.26 0.23 0.22 0.20
0.01 0.01 0.02 0.04 0.09 0.15 0.19 0.25 0.32 0.38 0.47 0.42 0.30 0.23 0.29 0.45 0.58 0.55 0.56 0.61 0.63 0.58 0.48 0.40 0.35 0.37 0.37 0.40 0.42 0.42 0.38 0.28 0.21 0.20 0.21 0.25 0.26 0.26 0.28 0.27 0.23 0.22 0.22 0.21
0.01 0.02 0.03 0.07 0.12 0.17 0.22 0.33 0.41 0.50 0.63 0.59 0.41 0.25 0.23 0.30 0.40 0.45 0.51 0.56 0.59 0.60 0.49 0.40 0.36 0.39 0.40 0.42 0.41 0.38 0.32 0.27 0.23 0.22 0.23 0.26 0.26 0.24 0.24 0.25 0.22 0.22 0.21 0.20
0.02 0.02 0.05 0.10 0.16 0.18 0.20 0.27 0.37 0.55 0.73 0.74 0.52 0.28 0.24 0.29 0.37 0.43 0.48 0.55 0.61 0.62 0.52 0.40 0.35 0.36 0.39 0.39 0.38 0.33 0.26 0.22 0.22 0.20 0.19 0.18 0.20 0.22 0.19 0.19 0.18 0.17 0.17 0.17